Regional Weather Roundup
Issued by NWS Binghamton, NY

Home | Current Version | Previous Version | Text Only | Print | Product List | Glossary On
Versions: 1 2 3 4 5 6 7 8 9 10 11 12 13 14 15 16 17 18 19 20 21 22 23 24 25 26 27 28 29 30 31 32 33 34 35 36 37 38 39 40 41 42 43 44 45 46 47 48 49 50
000
ASUS41 KBGM 170510
RWRBGM

REGIONAL WEATHER ROUNDUP
NATIONAL WEATHER SERVICE BINGHAMTON NY
1200 AM EST WED JAN 17 2018

Note: "fair" indicates few or no clouds below 12,000 feet with no
significant weather and/or obstructions to visibility.

* = Station(s) that does not report precipitation, such as rain,
snow, etc, also no thunder or fog.

NYZ009-015>018-022>025-036-037-044>046-055>057-062-170600
...Central New York...

CITY           SKY/WX    TMP DP  RH WIND       PRES   REMARKS
Binghamton     LGT SNOW  24  23  96 CALM      30.26S VSB 1
Cortland       LGT SNOW  23  23 100 CALM      30.29F
Dansville      LGT SNOW  19  14  81 N9        30.36S WCI   8
Elmira         LGT SNOW  25  25 100 CALM      30.30F FOG
Seneca Falls   FLURRIES  23  21  93 CALM      30.34F
Ithaca         LGT SNOW  25  23  92 SE3       30.30F FOG
Hornell        LGT SNOW  19  16  86 NW10      30.35R WCI   8
Monticello     LGT SNOW  26  25  96 CALM      30.29F FOG
Oneonta        LGT SNOW  25  23  93 CALM      30.26F VSB 1
Penn Yan       CLOUDY    24  20  84 NW7       30.31S FOG     WCI  16
Rome           LGT SNOW  23  21  92 SE5       30.37F FOG     WCI  17
Sidney         CLOUDY    27  27 100 CALM      30.30F
Syracuse       LGT SNOW  22  22 100 CALM      30.35F FOG
$$

PAZ038>040-043-044-047-048-072-170600
...Northeast Pennsylvania...

CITY           SKY/WX    TMP DP  RH WIND       PRES   REMARKS
Hazleton       LGT SNOW  28  27  93 CALM      30.29F
Scranton       LGT SNOW  28  28 100 CALM      30.29F VSB 1
$$
&&
KEY
WCI = Wind Chill Index
VSB = Visibility
HX  = Heat Index
$$



USA.gov is the U.S. government's official web portal to all federal, state and local government web resources and services.